Tracking 25612 objects as of 19-May-2022
HD Live streaming from Space Station
objects crossing your sky now

ARIANE 44LP DEB

Track ARIANE 44LP DEB now!


NORAD ID: 26794
Int'l Code: 1991-015L
Perigee: 654.3 km
Apogee: 28,347.9 km
Inclination: 7.7 °
Period: 500.2 minutes
Semi major axis: 20872 km
RCS: 0.5191 m2 (medium)
Launch date: March 2, 1991
Source: France (FR)
Launch site: FRENCH GUIANA (FRGUI)

Note: This is SATELLITE DEBRIS
aabbcc
Your satellite tracking list
Your tracking list is empty




NASA's NSSDC Master Catalog

Two Line Element Set (TLE):
1 26794U 91015L   22135.30416647 -.00000282  00000-0 -23308-2 0  9990
2 26794   7.6976  49.5639 6634118 193.8478 350.1206  2.87908186 84974
Source of the keplerian elements: AFSPC